Regional Weather Roundup
Issued by NWS

Home | Current Version | Previous Version | Text Only | Print | Product List | Glossary Off
Versions: 1 2 3 4 5 6 7 8 9 10 11 12 13 14 15 16 17 18 19 20 21 22 23 24 25 26 27 28 29 30 31 32 33 34 35 36 37 38 39 40 41 42 43 44 45 46 47 48 49 50

000
ASUS44 KMEG 310900
RWRTN
TENNESSEE HOURLY STATE WEATHER ROUNDUP
NATIONAL WEATHER SERVICE MEMPHIS TN
400 AM CDT WED AUG 31 2016

TNZ002-004-019-021-049-052-054-088>092-311000-
WEST TENNESSEE

CITY           SKY/WX    TMP DP  RH WIND       PRES   REMARKS
MEMPHIS INTL   CLEAR     80  71  74 NE3       30.01R
NWS MEMPHIS      N/A     74 N/A N/A MISG        N/A
JACKSON        CLEAR     73  72  96 CALM      30.01F
DYERSBURG      CLEAR     75  72  88 MISG      30.01F
UNION CITY     CLEAR     73  72  94 CALM      30.01S
PARIS          CLEAR     72  70  94 CALM      30.02F
LEXINGTON      CLEAR     72  72 100 CALM      30.01S
$$

TNZ008-025-027-028-033-062-065-066-311000-
NORTH MIDDLE TENNESSEE

CITY           SKY/WX    TMP DP  RH WIND       PRES   REMARKS
NASHVILLE      CLEAR     75  72  90 CALM      30.02F
CLARKSVILLE    CLEAR     72  71  97 CALM      30.01F FOG
COOKEVILLE     CLEAR     70  70 100 CALM      30.03S
CROSSVILLE     CLEAR     67  66  97 CALM      30.09F FOG
$$

TNZ061-075-076-078-094-096-097-311000-
SOUTH MIDDLE TENNESSEE

CITY           SKY/WX    TMP DP  RH WIND       PRES   REMARKS
TULLAHOMA      CLEAR     70  66  88 CALM      30.05S
WINCHESTER     CLEAR     68  66  94 CALM      30.04S
COLUMBIA       CLEAR    N/A N/A N/A CALM      30.01S
SHELBYVILLE    CLEAR     72  72 100 CALM      30.04S
$$

TNZ017-018-042-046-047-311000-
NORTHEAST TENNESSEE

CITY           SKY/WX    TMP DP  RH WIND       PRES   REMARKS
TRI CITIES     PTCLDY    67  66  97 CALM      30.07F FOG
$$

TNZ012-013-036-069-073-074-311000-
CENTRAL EAST TENNESSEE

CITY           SKY/WX    TMP DP  RH WIND       PRES   REMARKS
KNOXVILLE      PTCLDY    74  68  81 CALM      30.03S
GATLINBURG     CLEAR     66  66 100 CALM      30.03S
$$

TNZ083-085-099-311000-
SOUTHEAST TENNESSEE

CITY           SKY/WX    TMP DP  RH WIND       PRES   REMARKS
CHATTANOOGA    MOCLDY    74  68  81 CALM      30.02F
$$

SKY/WX REPORTED AS FAIR MEANS FEW OR NO CLOUDS BELOW
12 THOUSAND FEET.





USA.gov is the U.S. government's official web portal to all federal, state and local government web resources and services.